| time (UTC) | temp F | wind direction | speed knots | gust knots | rain 1hr in | rain 24hr in | rain mn in | humidity % | barometer mb |
| 20260505125003 | 53 | 194 | 7.0 | 9.6 | 0.00 | 0.00 | 0.00 | 93 | 1014.2 |
| 20260505124507 | 53 | 143 | 7.0 | 9.6 | 0.00 | 0.00 | 0.00 | 93 | 1014.1 |
| 20260505124003 | 53 | 198 | 6.1 | 8.7 | 0.00 | 0.00 | 0.00 | 93 | 1014.1 |
| 20260505123502 | 53 | 234 | 5.2 | 9.6 | 0.00 | 0.00 | 0.00 | 93 | 1014.1 |
| 20260505123004 | 53 | 211 | 6.1 | 9.6 | 0.00 | 0.00 | 0.00 | 93 | 1014.1 |
| 20260505122502 | 53 | 205 | 7.0 | 9.6 | 0.00 | 0.00 | 0.00 | 93 | 1013.9 |
| 20260505122002 | 53 | 188 | 6.1 | 8.7 | 0.00 | 0.00 | 0.00 | 93 | 1013.9 |
| 20260505121504 | 53 | 206 | 6.1 | 9.6 | 0.00 | 0.00 | 0.00 | 93 | 1013.9 |
| 20260505121003 | 53 | 193 | 5.2 | 10.4 | 0.00 | 0.00 | 0.00 | 93 | 1013.9 |
| 20260505120503 | 53 | 181 | 7.8 | 10.4 | 0.00 | 0.00 | 0.00 | 93 | 1013.8 |
| 20260505120004 | 53 | 209 | 5.2 | 10.4 | 0.00 | 0.00 | 0.00 | 93 | 1013.7 |
| 20260505115507 | 53 | 186 | 7.0 | 10.4 | 0.00 | 0.00 | 0.00 | 93 | 1013.7 |
| 20260505115003 | 53 | 207 | 5.2 | 9.6 | 0.00 | 0.00 | 0.00 | 93 | 1013.7 |
| 20260505114505 | 53 | 196 | 7.8 | 9.6 | 0.00 | 0.00 | 0.00 | 93 | 1013.6 |
| 20260505114003 | 53 | 194 | 6.1 | 9.6 | 0.00 | 0.00 | 0.00 | 93 | 1013.6 |
| 20260505113502 | 53 | 197 | 7.0 | 9.6 | 0.00 | 0.00 | 0.00 | 93 | 1013.5 |
| 20260505113005 | 53 | 193 | 7.0 | 9.6 | 0.00 | 0.00 | 0.00 | 93 | 1013.5 |
| 20260505112504 | 53 | 208 | 7.0 | 8.7 | 0.00 | 0.00 | 0.00 | 93 | 1013.4 |
| 20260505112001 | 53 | 194 | 5.2 | 8.7 | 0.00 | 0.00 | 0.00 | 93 | 1013.5 |
| 20260505111502 | 53 | 190 | 6.1 | 8.7 | 0.00 | 0.00 | 0.00 | 93 | 1013.5 |
| 20260505111002 | 53 | 198 | 4.3 | 10.4 | 0.00 | 0.00 | 0.00 | 93 | 1013.5 |
| 20260505110503 | 53 | 200 | 5.2 | 10.4 | 0.00 | 0.00 | 0.00 | 93 | 1013.6 |
| 20260505102003 | 53 | 207 | 5.2 | 9.6 | 0.00 | 0.00 | 0.00 | 93 | 1013.4 |
| 20260505101504 | 53 | 194 | 6.1 | 9.6 | 0.00 | 0.00 | 0.00 | 93 | 1013.3 |
| 20260505101004 | 53 | 202 | 6.1 | 8.7 | 0.00 | 0.00 | 0.00 | 94 | 1013.3 |
| 20260505100502 | 53 | 195 | 6.1 | 8.7 | 0.00 | 0.00 | 0.00 | 94 | 1013.3 |
| 20260505100004 | 53 | 228 | 6.1 | 8.7 | 0.00 | 0.00 | 0.00 | 94 | 1013.2 |
| 20260505095502 | 53 | 206 | 6.1 | 8.7 | 0.00 | 0.00 | 0.00 | 94 | 1013.2 |
| 20260505095002 | 53 | 202 | 6.1 | 7.8 | 0.00 | 0.00 | 0.00 | 94 | 1013.1 |
| 20260505094503 | 53 | 187 | 5.2 | 7.8 | 0.00 | 0.00 | 0.00 | 94 | 1013.1 |
| 20260505094003 | 53 | 205 | 5.2 | 7.8 | 0.00 | 0.00 | 0.00 | 94 | 1013.0 |
| 20260505093503 | 53 | 197 | 4.3 | 7.8 | 0.00 | 0.00 | 0.00 | 94 | 1013.0 |
| 20260505093006 | 53 | 205 | 5.2 | 8.7 | 0.00 | 0.00 | 0.00 | 93 | 1013.0 |
| 20260505092503 | 53 | 217 | 5.2 | 8.7 | 0.00 | 0.00 | 0.00 | 93 | 1013.0 |
| 20260505092004 | 53 | 207 | 5.2 | 7.8 | 0.00 | 0.00 | 0.00 | 93 | 1012.8 |
| 20260505091505 | 53 | 207 | 5.2 | 8.7 | 0.00 | 0.00 | 0.00 | 93 | 1012.8 |
| 20260505091003 | 53 | 197 | 5.2 | 8.7 | 0.00 | 0.00 | 0.00 | 93 | 1012.7 |
| 20260505090503 | 53 | 187 | 5.2 | 9.6 | 0.00 | 0.00 | 0.00 | 93 | 1012.7 |
| 20260505090006 | 53 | 198 | 5.2 | 9.6 | 0.00 | 0.00 | 0.00 | 93 | 1012.6 |
| 20260505085504 | 53 | 173 | 5.2 | 8.7 | 0.00 | 0.00 | 0.00 | 93 | 1012.6 |
| 20260505085005 | 53 | 194 | 5.2 | 8.7 | 0.00 | 0.00 | 0.00 | 93 | 1012.6 |
| 20260505084507 | 53 | 181 | 6.1 | 8.7 | 0.00 | 0.00 | 0.00 | 92 | 1012.6 |
| 20260505084004 | 53 | 199 | 4.3 | 8.7 | 0.00 | 0.00 | 0.00 | 92 | 1012.6 |
| 20260505083502 | 53 | 202 | 5.2 | 8.7 | 0.00 | 0.00 | 0.00 | 92 | 1012.5 |
| 20260505083012 | 53 | 213 | 4.3 | 8.7 | 0.00 | 0.00 | 0.00 | 92 | 1012.5 |
| 20260505082503 | 53 | 198 | 5.2 | 7.8 | 0.00 | 0.00 | 0.00 | 92 | 1012.4 |
| 20260505082004 | 53 | 196 | 4.3 | 8.7 | 0.00 | 0.00 | 0.00 | 92 | 1012.4 |
| 20260505081508 | 53 | 194 | 5.2 | 8.7 | 0.00 | 0.00 | 0.00 | 92 | 1012.4 |
| 20260505081009 | 53 | 205 | 6.1 | 8.7 | 0.00 | 0.00 | 0.00 | 92 | 1012.4 |
| 20260505080506 | 54 | 202 | 6.1 | 8.7 | 0.00 | 0.00 | 0.00 | 92 | 1012.4 |
| 20260505080023 | 54 | 223 | 4.3 | 8.7 | 0.00 | 0.00 | 0.00 | 92 | 1012.5 |
| 20260505075503 | 54 | 215 | 5.2 | 8.7 | 0.00 | 0.00 | 0.00 | 92 | 1012.4 |
| 20260505075007 | 54 | 196 | 6.1 | 8.7 | 0.00 | 0.00 | 0.00 | 92 | 1012.3 |
| 20260505074505 | 53 | 196 | 5.2 | 8.7 | 0.00 | 0.00 | 0.00 | 92 | 1012.3 |
| 20260505074004 | 54 | 195 | 4.3 | 8.7 | 0.00 | 0.00 | 0.00 | 92 | 1012.2 |
| 20260505073504 | 53 | 206 | 4.3 | 8.7 | 0.00 | 0.00 | 0.00 | 92 | 1012.3 |
| 20260505073006 | 54 | 207 | 5.2 | 8.7 | 0.00 | 0.00 | 0.00 | 91 | 1012.2 |
| 20260505072502 | 54 | 203 | 6.1 | 8.7 | 0.00 | 0.00 | 0.00 | 91 | 1012.0 |
| 20260505072003 | 54 | 196 | 5.2 | 7.8 | 0.00 | 0.00 | 0.00 | 91 | 1012.0 |
| 20260505071508 | 54 | 197 | 5.2 | 7.0 | 0.00 | 0.00 | 0.00 | 91 | 1012.0 |
| 20260505071003 | 54 | 195 | 4.3 | 7.0 | 0.00 | 0.00 | 0.00 | 91 | 1011.9 |
| 20260505070505 | 54 | 202 | 3.5 | 6.1 | 0.00 | 0.00 | 0.00 | 91 | 1011.8 |
| 20260505070009 | 54 | 203 | 3.5 | 6.1 | 0.00 | 0.00 | 0.00 | 90 | 1011.7 |
| 20260505065503 | 54 | 202 | 3.5 | 5.2 | 0.00 | 0.00 | 0.00 | 90 | 1011.7 |
| 20260505065004 | 55 | 196 | 3.5 | 5.2 | 0.00 | 0.00 | 0.00 | 90 | 1011.7 |
| 20260505064510 | 55 | 184 | 2.6 | 5.2 | 0.00 | 0.00 | 0.00 | 89 | 1011.7 |
| 20260505064004 | 55 | 195 | 1.7 | 5.2 | 0.00 | 0.00 | 0.00 | 88 | 1011.7 |
| 20260505063504 | 56 | 198 | 1.7 | 4.3 | 0.00 | 0.00 | 0.00 | 87 | 1011.8 |
| 20260505063008 | 56 | 188 | 0.0 | 2.6 | 0.00 | 0.00 | 0.00 | 87 | 1011.7 |
| 20260505062505 | 57 | 134 | 0.0 | 6.1 | 0.00 | 0.00 | 0.00 | 86 | 1011.7 |
| 20260505062004 | 57 | 206 | 1.7 | 6.1 | 0.00 | 0.00 | 0.00 | 86 | 1011.7 |
| 20260505061518 | 57 | 200 | 2.6 | 5.2 | 0.00 | 0.00 | 0.00 | 86 | 1011.6 |
| 20260505061007 | 57 | 152 | 1.7 | 5.2 | 0.00 | 0.00 | 0.00 | 85 | 1011.5 |
| 20260505060504 | 57 | 207 | 1.7 | 5.2 | 0.00 | 0.00 | 0.00 | 85 | 1011.4 |
| 20260505060012 | 57 | 192 | 0.9 | 5.2 | 0.00 | 0.00 | 0.00 | 84 | 1011.4 |
| 20260505055505 | 57 | 202 | 2.6 | 5.2 | 0.00 | 0.00 | 0.00 | 84 | 1011.3 |
| 20260505055003 | 57 | 187 | 0.0 | 2.6 | 0.00 | 0.00 | 0.00 | 84 | 1011.2 |
| 20260505054511 | 57 | 130 | 0.0 | 1.7 | 0.00 | 0.00 | 0.00 | 84 | 1011.2 |
| 20260505054003 | 58 | 180 | 0.0 | 4.3 | 0.00 | 0.00 | 0.00 | 83 | 1011.2 |
| 20260505053503 | 58 | 61 | 0.9 | 4.3 | 0.00 | 0.00 | 0.00 | 81 | 1011.2 |
| 20260505053011 | 59 | 35 | 0.9 | 2.6 | 0.00 | 0.00 | 0.00 | 81 | 1011.0 |
| 20260505052504 | 59 | 34 | 0.9 | 2.6 | 0.00 | 0.00 | 0.00 | 81 | 1011.0 |
| 20260505052005 | 59 | 34 | 0.0 | 1.7 | 0.00 | 0.00 | 0.00 | 81 | 1011.0 |
| 20260505051513 | 59 | 34 | 0.0 | 1.7 | 0.00 | 0.00 | 0.00 | 79 | 1010.9 |
| 20260505051004 | 59 | 34 | 0.0 | 0.0 | 0.00 | 0.00 | 0.00 | 80 | 1010.8 |
| 20260505050508 | 59 | 34 | 0.0 | 0.0 | 0.00 | 0.00 | 0.00 | 80 | 1010.9 |
| 20260505041526 | 61 | 34 | 0.9 | 3.5 | 0.00 | 0.00 | 0.00 | 76 | 1010.4 |
| 20260505041007 | 62 | 350 | 0.9 | 2.6 | 0.00 | 0.00 | 0.00 | 76 | 1010.3 |
| 20260505040504 | 62 | 360 | 0.9 | 1.7 | 0.00 | 0.00 | 0.00 | 74 | 1010.0 |
| 20260505040016 | 63 | 5 | 0.9 | 2.6 | 0.00 | 0.00 | 0.00 | 73 | 1010.0 |
| 20260505035507 | 63 | 9 | 0.9 | 0.0 | 0.00 | 0.00 | 0.00 | 70 | 1009.9 |
| 20260505035007 | 63 | 9 | 1.7 | 2.6 | 0.00 | 0.00 | 0.00 | 70 | 1009.8 |
| 20260505034513 | 63 | 5 | 1.7 | 2.6 | 0.00 | 0.00 | 0.00 | 71 | 1009.8 |
| 20260505034012 | 63 | 5 | 0.9 | 1.7 | 0.00 | 0.00 | 0.00 | 70 | 1009.8 |
| 20260505033513 | 64 | 5 | 0.9 | 0.0 | 0.00 | 0.00 | 0.00 | 69 | 1009.8 |
| 20260505033031 | 64 | 5 | 0.9 | 2.6 | 0.00 | 0.00 | 0.00 | 70 | 1009.7 |
| 20260505032505 | 64 | 5 | 0.9 | 2.6 | 0.00 | 0.00 | 0.00 | 70 | 1009.6 |
| 20260505032139 | 57 | 216 | 0.9 | 4.3 | 0.00 | 0.00 | 0.00 | 76 | 1009.3 |
| 20260505032132 | 59 | 157 | 2.6 | 5.2 | 0.00 | 0.00 | 0.00 | 76 | 1009.2 |
| 20260505032128 | 57 | 159 | 0.0 | 1.7 | 0.00 | 0.00 | 0.00 | 79 | 1009.0 |
| 20260505032124 | 56 | 159 | 0.0 | 4.3 | 0.00 | 0.00 | 0.00 | 77 | 1009.1 |
| 20260505032120 | 56 | 159 | 0.0 | 6.1 | 0.00 | 0.00 | 0.00 | 76 | 1009.2 |
| 20260505032117 | 57 | 170 | 1.7 | 6.1 | 0.00 | 0.00 | 0.00 | 75 | 1009.3 |
| 20260505032113 | 57 | 345 | 0.0 | 3.5 | 0.00 | 0.00 | 0.00 | 78 | 1009.0 |
| 20260505032109 | 56 | 344 | 1.7 | 3.5 | 0.00 | 0.00 | 0.00 | 78 | 1009.0 |
| 20260505032102 | 56 | 19 | 0.0 | 3.5 | 0.00 | 0.00 | 0.00 | 80 | 1009.5 |
| 20260505032054 | 56 | 268 | 0.0 | 3.5 | 0.00 | 0.00 | 0.00 | 81 | 1009.6 |
| 20260505032051 | 55 | 284 | 0.0 | 3.5 | 0.00 | 0.00 | 0.00 | 82 | 1009.6 |
| 20260505032040 | 55 | 139 | 0.0 | 3.5 | 0.00 | 0.00 | 0.00 | 79 | 1009.7 |
| 20260505032030 | 54 | 214 | 0.0 | 0.0 | 0.00 | 0.00 | 0.00 | 81 | 1009.8 |
| 20260505031845 | 54 | 217 | 1.7 | 3.5 | 0.00 | 0.00 | 0.00 | 81 | 1010.0 |
| 20260505031838 | 54 | 284 | 0.0 | 5.2 | 0.00 | 0.00 | 0.00 | 82 | 1009.7 |
| 20260505031836 | 54 | 284 | 0.9 | 5.2 | 0.00 | 0.00 | 0.00 | 81 | 1009.8 |
| 20260505031827 | 54 | 13 | 0.0 | 4.3 | 0.00 | 0.00 | 0.00 | 81 | 1009.8 |
| 20260505031825 | 54 | 13 | 2.6 | 4.3 | 0.00 | 0.00 | 0.00 | 82 | 1009.6 |
| 20260505031817 | 53 | 234 | 0.0 | 2.6 | 0.00 | 0.00 | 0.00 | 80 | 1009.8 |
| 20260505031814 | 53 | 234 | 0.0 | 2.6 | 0.00 | 0.00 | 0.00 | 79 | 1009.9 |
| 20260505031808 | 53 | 238 | 0.0 | 2.6 | 0.00 | 0.00 | 0.00 | 81 | 1009.5 |
| 20260505031759 | 53 | 238 | 0.0 | 2.6 | 0.00 | 0.00 | 0.00 | 80 | 1009.5 |
| 20260505031752 | 52 | 238 | 1.7 | 2.6 | 0.00 | 0.00 | 0.00 | 81 | 1009.6 |
| 20260505031739 | 52 | 349 | 0.0 | 0.0 | 0.00 | 0.00 | 0.00 | 80 | 1009.4 |